Вернуться в каталог

STARLINK-34513

АктивенСвязьVLEO
NORAD 64609·PAYLOAD·🇺🇸 United States

Запущен Jun 25, 2025 с Cape Canaveral Space Force Station

Loading…

Ближайшие Пролёты (ближайшие 24 часа)

TLE

СвежийSource: CelesTrak SupGP

Эпоха: Sep 15, 2026, 03:02 UTC

1 64609C 25137R   26258.12687500 -.00054508  00000+0 -16106-2 0  2582
2 64609  53.1578 173.0965 0001357  87.6332 139.8187 15.34414619    18

Отслеживайте STARLINK-34513 в реальном времени с AllMySat

Download on the App Store